RH
14 14 15 20 28 35 31 28 19 27 47 46 44 47 77 90 70 66 92 90 77 78 87 84 79 73 57 42 31 21 11 9 9 9 10 10 10 10 10 11 11 11 13 15 19 27 37 47 61
12 15 19 26 34 36 36 22 22 28 50 50 50 60 76 96 99 98 97 89 79 83 91 83 76 61 45 26 8 8 9 10 11 12 13 14 15 15 16 16 16 17 17 17 16 16 16 19 24
13 26 25 33 36 38 34 21 36 45 45 42 60 70 85 94 96 100 99 81 81 89 90 82 67 51 28 9 8 9 11 12 13 14 14 15 14 14 14 15 16 17 18 19 20 22 22 21 19
27 32 30 38 33 30 24 35 45 47 41 42 58 92 86 92 89 86 90 81 82 86 87 77 61 36 13 9 9 11 12 13 13 13 13 13 12 12 12 13 14 15 16 18 18 20 22 24 25
44 34 36 42 35 26 24 35 44 44 43 47 46 87 96 93 91 87 83 82 85 82 85 74 48 18 11 9 11 12 13 13 13 12 12 12 12 12 13 13 15 16 16 17 18 19 20 20 22
49 44 36 39 33 28 21 23 39 44 44 53 60 87 93 92 93 90 86 86 86 79 79 62 27 14 10 10 11 12 12 12 12 12 11 12 14 14 15 15 17 18 19 20 21 21 20 20 19
60 61 44 31 30 26 23 17 41 43 44 46 51 94 94 93 94 91 89 87 85 75 61 35 18 13 10 11 12 12 13 13 12 12 12 13 14 15 14 14 16 18 20 21 24 25 25 26 24
56 51 41 34 25 31 20 17 20 38 44 50 46 94 95 95 93 92 90 84 79 67 49 25 18 14 11 11 12 12 12 13 13 12 13 14 14 14 13 13 14 16 18 19 22 25 27 29 30
55 63 63 36 28 23 19 26 33 37 40 36 43 46 50 92 93 90 83 80 76 67 42 22 18 15 12 12 12 12 13 12 13 15 14 16 15 13 13 12 12 14 15 16 18 20 24 26 28
64 77 60 34 22 21 22 29 32 34 44 61 48 49 53 82 90 86 79 76 73 57 34 22 19 16 12 12 12 12 12 14 16 16 15 15 14 13 14 14 14 16 16 15 16 18 20 23 25
61 69 47 32 29 28 25 34 32 36 37 52 51 52 65 81 86 80 74 70 58 48 32 24 20 16 14 14 14 13 14 18 18 17 15 15 15 16 16 16 17 17 16 14 13 12 11 11 15
64 51 46 35 31 30 31 30 37 33 33 35 39 35 52 70 74 75 71 63 56 42 35 25 22 18 16 16 15 15 19 19 18 17 16 16 17 18 18 19 18 17 15 14 12 11 11 10 9
59 54 38 37 31 28 28 34 34 29 29 30 45 51 55 66 70 74 63 63 53 44 39 27 24 21 19 18 16 19 21 21 19 17 17 19 20 20 21 22 22 21 19 18 17 16 15 14 14
48 45 48 40 33 31 34 34 28 33 32 37 49 56 60 59 67 72 69 62 54 48 43 30 26 24 21 18 20 22 23 23 21 19 19 22 22 22 23 25 26 26 25 24 23 23 23 24 23
52 51 51 46 38 36 32 33 35 42 51 52 62 65 66 64 66 64 61 56 50 49 45 33 27 26 22 20 22 24 26 26 23 21 22 23 23 24 25 27 28 29 30 30 29 28 29 30 30
59 50 58 39 38 33 35 47 31 51 53 68 65 64 61 57 61 60 56 55 56 53 46 35 30 27 24 22 23 25 26 26 25 22 22 24 24 25 26 29 30 32 33 34 35 34 32 31 29
52 70 57 40 41 33 36 39 34 46 49 59 56 55 52 59 62 59 61 55 55 51 47 34 32 30 27 25 25 28 28 27 24 23 23 24 25 26 29 30 32 34 36 37 37 39 40 39 38
65 56 50 50 44 36 40 37 37 41 42 49 56 56 57 58 58 59 58 55 54 52 43 38 38 37 33 30 29 30 30 30 29 28 26 27 29 31 32 34 37 39 40 42 42 41 42 43 41
46 48 47 42 38 39 45 37 38 36 42 46 50 56 57 57 57 57 56 55 51 47 42 40 40 40 40 36 34 32 32 31 31 32 31 34 39 44 47 46 46 48 50 51 50 47 45 45 46
60 46 44 37 36 38 48 41 34 33 33 39 42 48 50 52 53 52 49 48 45 41 41 42 43 46 47 44 40 37 35 34 33 34 37 46 54 55 52 53 55 56 56 58 58 56 51 49 54
61 48 44 44 37 32 49 51 36 31 30 28 36 37 41 45 47 47 46 44 42 41 38 40 44 47 50 49 44 42 39 37 36 43 50 53 56 56 54 52 54 61 61 58 58 58 56 54 58
64 46 39 43 54 63 44 70 42 36 37 33 27 32 34 37 41 43 43 42 40 38 38 41 46 52 54 51 50 46 42 40 41 37 40 43 46 48 51 58 62 65 61 61 60 60 60 60 58
50 47 44 48 50 50 36 53 40 38 36 37 31 27 26 28 34 37 41 40 37 34 33 38 50 56 56 55 53 44 41 34 36 36 38 40 43 46 55 61 66 62 53 51 50 51 53 54 54
46 45 45 57 56 70 48 38 30 44 32 28 28 27 27 26 28 34 39 34 29 32 35 38 48 54 56 54 46 41 33 32 32 35 38 41 42 46 55 62 58 49 38 30 25 24 26 28 30
52 58 83 79 78 70 58 62 42 26 28 30 31 24 28 30 27 28 29 32 38 41 44 47 51 57 56 48 38 30 30 33 36 38 40 44 51 59 66 61 44 26 19 16 14 12 12 13 15
54 65 89 83 78 69 51 50 27 29 33 42 41 31 39 38 37 37 40 42 44 44 49 56 51 45 42 35 32 32 32 33 36 41 43 45 47 45 32 20 18 15 8 7 7 8 10 11 13
68 67 45 64 72 66 60 34 36 29 46 56 57 50 46 42 40 40 43 44 44 45 42 43 43 41 34 32 32 32 33 37 42 44 43 41 28 20 21 14 7 5 5 6 7 7 7 7 8
62 40 45 67 65 57 64 39 66 34 41 52 57 50 45 41 39 41 45 44 43 45 44 46 41 35 34 33 32 32 35 39 42 42 35 18 22 18 10 6 8 10 10 10 10 9 9 8 8
40 39 38 45 55 54 46 56 46 38 39 49 47 41 40 40 41 42 44 46 49 48 43 41 36 34 34 35 33 33 38 42 41 27 20 23 14 8 9 12 15 17 16 13 11 10 10 9 10
46 41 37 50 25 45 50 52 31 35 38 37 36 37 37 39 40 42 45 47 47 45 43 40 37 35 36 37 37 40 44 40 23 21 25 15 9 12 16 20 22 22 18 13 10 10 10 11 11
Wind_Speed
8 7 6 3 2 4 4 6 3 2 3 5 8 7 10 9 3 4 15 18 12 10 13 10 7 4 2 2 2 2 3 4 4 4 5 5 5 5 6 6 6 7 8 9 10 10 11 11 10
8 8 5 2 4 3 5 5 4 3 15 19 16 10 8 3 7 15 19 19 15 13 12 9 6 4 2 2 1 2 2 3 4 4 5 5 5 5 5 5 6 6 7 8 8 9 9 9 10
9 10 4 4 4 6 5 4 5 9 19 3 7 12 5 8 15 22 17 20 17 15 11 9 6 3 2 1 1 2 3 4 4 5 5 6 7 7 7 7 7 7 7 8 7 7 8 8 8
9 6 3 4 9 5 5 2 4 10 7 4 17 8 7 8 19 14 20 18 18 15 13 9 6 3 2 0 2 3 4 4 5 5 6 6 7 8 8 8 8 8 8 8 8 8 7 7 6
10 4 3 3 7 4 5 7 10 4 6 11 7 6 6 19 14 17 18 17 15 14 12 9 6 4 2 1 1 2 4 4 5 5 6 7 8 8 8 9 9 8 8 8 9 9 8 7 7
6 2 2 6 8 4 5 10 6 5 8 12 11 10 8 17 20 23 20 19 14 10 12 10 7 4 2 1 1 2 4 4 5 6 7 7 8 8 8 9 9 8 8 8 7 8 8 7 7
5 3 5 7 11 4 7 10 9 10 11 7 19 6 9 20 29 25 22 19 15 12 11 9 7 5 3 1 1 2 3 5 6 7 8 7 7 7 8 8 8 9 8 8 6 6 7 7 7
4 4 4 5 12 12 7 10 20 14 5 20 13 8 9 31 33 28 22 20 16 13 11 9 7 5 3 1 1 2 3 4 6 8 8 8 8 8 9 9 9 9 9 9 9 6 6 7 7
5 1 4 7 8 5 8 7 7 11 19 9 11 7 6 40 35 28 25 22 18 15 12 9 7 5 3 1 1 2 4 4 6 8 9 9 8 8 8 9 10 10 10 9 9 9 7 7 7
5 3 7 6 4 5 2 6 16 9 12 5 12 12 18 40 37 33 29 25 20 16 12 9 7 6 3 2 2 3 5 6 7 7 7 7 8 8 9 11 12 11 11 10 10 9 9 8 7
4 4 5 4 7 4 4 7 5 18 3 15 27 24 31 39 36 33 29 24 19 16 13 10 7 5 3 2 2 4 5 6 6 7 6 6 6 7 9 10 10 10 10 10 9 9 9 9 8
3 11 11 3 7 8 4 7 4 7 8 22 23 25 31 36 35 33 29 26 22 17 13 11 9 7 4 3 3 4 5 6 7 6 4 4 5 7 9 10 10 11 11 10 10 9 9 9 9
4 5 20 20 21 18 13 9 7 6 11 18 23 26 30 32 31 30 25 23 20 17 14 12 10 7 6 4 4 4 5 6 6 5 3 3 5 7 9 10 11 11 11 11 11 10 10 10 8
3 16 18 12 12 13 5 4 6 4 16 23 25 27 28 27 28 28 27 24 21 16 14 13 11 9 7 5 4 4 5 7 6 5 3 4 5 7 9 10 10 11 11 12 12 11 11 10 9
17 4 8 14 13 6 2 2 4 17 21 28 28 26 25 24 24 28 26 24 18 14 11 12 12 11 8 6 5 4 5 7 6 4 4 4 6 8 9 10 10 11 11 12 12 11 11 11 9
6 5 3 5 9 7 3 4 2 20 27 27 25 24 23 23 25 24 23 20 18 15 12 12 12 11 9 7 6 5 6 7 6 5 5 6 7 9 10 10 11 11 12 12 12 12 11 11 12
1 4 5 4 10 3 3 3 4 21 24 25 24 24 23 23 24 23 22 20 20 16 14 13 12 11 10 9 7 6 7 8 7 6 6 7 9 10 11 12 12 12 12 13 13 13 14 14 13
8 6 5 8 5 3 3 3 4 21 22 25 24 23 24 26 26 24 22 19 18 17 15 13 11 12 11 11 9 8 8 8 7 6 8 8 10 11 12 13 13 13 13 13 14 14 13 15 16
2 5 5 4 4 4 6 3 7 15 16 16 21 25 26 27 23 24 23 21 19 18 18 15 14 12 12 11 11 10 9 9 9 8 9 10 12 13 13 13 13 14 14 14 15 15 14 13 16
3 4 5 0 3 3 5 5 4 7 8 21 25 26 28 25 25 25 25 24 22 19 17 17 16 14 13 13 13 12 11 11 10 11 12 12 11 12 12 13 14 13 13 13 14 14 14 14 15
2 4 4 5 4 3 6 6 4 5 6 14 24 27 27 28 28 27 26 25 22 21 19 19 17 16 16 15 14 13 12 12 11 12 12 12 12 13 13 13 12 11 12 12 12 12 12 12 11
3 8 5 3 5 4 3 4 5 5 9 6 23 26 29 29 28 29 28 26 24 20 19 19 19 19 17 16 14 13 13 12 12 13 12 12 12 13 12 10 9 10 10 10 10 10 10 12 12
6 7 8 7 4 4 2 3 7 4 7 9 19 25 20 27 29 29 29 25 20 19 20 20 20 20 18 16 14 14 14 13 13 12 12 12 13 13 11 9 8 8 9 9 10 10 11 12 13
3 2 4 4 4 1 4 5 5 5 11 4 5 21 20 13 22 24 25 21 18 17 18 19 19 18 17 16 15 14 13 13 13 13 12 12 11 10 9 8 8 9 9 9 10 11 12 13 14
3 3 2 1 1 5 3 4 7 1 2 3 6 21 23 18 18 22 22 20 18 16 16 16 17 17 16 15 13 12 13 13 12 11 10 9 8 7 7 8 9 9 11 12 13 14 14 15 15
3 5 5 5 5 3 2 5 3 3 6 5 4 15 21 18 15 15 15 15 14 14 14 15 15 15 14 12 12 13 12 11 10 9 7 7 6 6 6 6 8 10 11 12 13 13 14 14 15
6 5 4 7 3 4 2 4 4 3 6 10 16 21 18 14 10 10 12 12 12 12 12 13 13 13 12 12 12 12 10 9 9 8 7 7 5 5 6 8 9 9 9 10 12 13 14 15 16
6 4 3 3 4 2 4 1 3 0 3 4 6 10 11 9 9 10 9 10 10 10 11 13 13 13 12 13 13 12 11 10 10 9 7 7 6 6 7 6 6 7 10 12 14 15 16 17 17
5 2 5 4 4 5 4 4 5 2 5 6 8 9 9 8 7 6 6 7 9 11 12 14 15 15 14 14 14 13 12 11 10 9 8 7 6 6 4 5 7 10 13 15 17 18 18 19 19
3 2 4 4 0 1 3 3 3 2 1 4 3 4 5 6 7 7 8 8 10 11 13 15 16 17 16 15 14 12 12 11 10 9 8 8 6 5 5 8 11 14 16 18 19 20 20 22 22
Wind_Direction
235 229 239 251 53 65 266 261 266 168 78 63 101 122 117 59 98 166 151 177 172 187 202 178 176 188 229 288 312 319 317 321 323 328 328 332 330 327 321 314 306 299 294 291 289 286 282 277 274
211 202 214 159 108 123 264 254 218 189 131 110 86 84 51 84 106 140 148 168 177 183 187 185 187 199 240 284 316 334 343 348 345 347 351 352 349 345 338 329 321 315 306 303 300 296 291 284 276
191 189 192 145 151 187 218 229 171 130 151 145 106 80 90 123 143 147 169 165 180 180 193 188 192 207 233 244 342 357 1 9 1 3 4 0 352 353 349 345 338 331 324 320 315 310 303 297 292
177 179 180 139 212 233 204 219 166 138 133 126 125 71 91 133 151 180 161 167 182 197 198 192 200 208 207 323 13 12 9 17 8 3 1 358 352 353 350 348 348 344 337 332 326 320 314 307 298
181 170 151 189 239 232 222 195 165 148 140 136 134 143 116 157 160 175 164 174 188 190 189 196 199 195 187 82 24 14 21 12 7 2 1 359 358 355 352 350 354 350 345 341 336 330 321 309 299
184 175 144 187 229 178 243 206 191 169 143 150 106 113 160 163 171 179 178 182 194 203 188 193 190 181 168 132 41 26 16 9 358 3 0 2 1 355 351 349 351 349 345 344 343 336 329 319 308
159 126 204 187 219 182 212 198 172 184 148 186 147 100 151 163 173 182 183 189 194 193 189 188 184 176 163 145 42 14 14 9 355 358 357 360 357 347 344 343 346 344 344 338 344 349 338 330 321
217 130 207 215 209 238 192 191 213 181 159 149 168 160 177 171 176 185 189 188 194 190 192 190 184 178 170 154 356 348 356 359 351 348 349 353 358 355 353 348 347 345 339 333 325 323 326 322 323
208 131 213 200 181 235 195 166 161 179 151 168 175 182 199 172 180 185 185 188 195 196 196 195 187 187 192 184 287 325 341 340 351 346 350 358 357 359 353 354 356 351 344 335 328 322 323 318 312
193 166 211 222 224 219 261 189 155 147 143 121 156 168 166 176 182 187 188 193 198 199 196 199 197 194 197 225 299 323 331 349 349 347 350 356 355 2 3 359 358 354 349 342 339 336 326 318 308
207 211 234 272 284 328 293 171 188 139 212 184 171 160 169 179 186 192 195 201 199 194 197 202 207 216 222 257 298 312 331 346 344 340 350 358 2 4 4 1 356 352 348 345 341 336 330 322 313
265 225 250 267 335 331 267 201 145 164 174 194 182 174 174 184 191 195 197 196 194 194 197 205 206 209 225 249 284 310 323 331 336 336 346 359 3 7 6 2 359 356 352 349 345 340 335 330 324
252 269 233 259 285 285 289 237 163 153 163 175 173 174 179 186 193 196 197 198 196 197 202 207 210 216 222 238 267 285 308 324 330 325 332 352 4 5 5 3 1 360 356 355 351 348 344 337 333
259 231 257 280 297 292 304 211 149 178 168 168 174 180 185 190 194 193 195 198 199 200 205 212 215 220 224 234 247 271 305 322 325 314 316 338 349 355 358 358 357 357 356 355 354 351 350 345 341
256 249 283 261 269 271 202 227 166 159 166 163 175 182 188 195 195 197 196 199 197 197 210 219 222 225 228 232 240 264 299 320 318 300 297 312 329 337 342 345 346 347 348 350 350 348 345 341 337
157 165 200 268 197 256 140 234 175 165 166 166 176 185 194 198 197 197 202 206 204 207 219 223 227 230 232 238 246 268 302 317 311 292 285 297 312 322 327 330 333 334 336 338 339 339 342 337 333
114 191 193 274 204 205 151 209 176 175 175 170 182 190 194 194 197 199 206 210 209 217 229 231 233 233 236 242 253 272 296 308 304 293 294 299 305 313 317 319 321 323 325 326 328 332 333 335 336
178 186 179 197 207 178 144 262 173 183 184 184 187 191 195 197 200 197 207 213 221 229 233 238 240 240 244 243 252 271 293 304 298 285 294 304 305 311 312 310 313 315 317 318 320 322 325 330 332
75 152 172 188 204 129 195 231 197 187 191 183 190 194 200 206 203 200 206 215 223 226 230 239 247 251 255 254 258 269 282 289 285 285 295 302 304 308 308 305 307 309 313 316 317 318 319 327 331
342 180 209 226 179 126 178 249 217 199 207 197 195 201 206 203 198 199 203 212 221 232 234 241 249 254 259 258 259 265 277 282 280 287 293 297 301 306 307 306 304 305 310 314 315 315 319 328 339
193 182 202 168 130 53 122 318 197 242 234 214 214 214 213 210 202 204 205 213 223 232 239 242 246 252 257 260 259 263 273 279 278 280 283 287 293 298 301 304 302 303 308 314 315 314 316 322 334
242 191 202 158 117 182 147 238 256 235 227 222 219 217 222 218 213 211 212 216 224 232 234 236 242 249 255 257 259 265 272 272 273 274 280 288 294 299 302 301 301 303 309 314 316 316 318 319 323
240 176 195 164 146 103 179 76 246 164 239 244 232 217 219 225 219 214 213 216 220 229 235 236 238 245 252 257 261 263 266 269 273 279 283 286 287 286 283 289 297 304 312 314 314 314 314 314 313
34 55 58 67 95 57 207 132 261 199 209 231 198 216 204 196 207 212 207 211 219 225 228 232 237 243 249 255 255 260 268 275 277 275 276 277 277 278 281 288 297 304 309 310 310 310 309 308 306
104 161 54 136 83 204 343 74 249 233 3 269 233 203 197 192 186 191 201 209 220 236 239 237 240 243 243 245 255 265 270 271 273 277 280 280 281 285 288 296 305 309 311 313 314 312 311 308 307
129 128 184 160 172 199 3 222 243 357 340 321 267 193 170 166 176 191 209 223 234 236 235 238 236 232 237 246 255 263 270 275 275 272 270 267 263 264 269 287 301 308 313 316 317 317 316 313 312
124 209 196 110 25 83 227 287 332 30 25 68 100 133 148 163 183 217 228 233 235 234 236 231 231 233 240 252 266 271 271 268 263 262 262 258 248 264 287 300 308 315 321 324 325 323 321 319 316
190 184 79 9 130 120 283 237 231 348 97 105 113 137 155 176 200 209 221 232 233 238 238 235 238 242 247 256 262 262 260 258 255 252 240 237 255 274 288 301 317 329 333 332 327 322 319 317 316
213 214 59 112 114 153 147 261 218 264 170 158 177 179 191 204 216 223 239 250 250 253 254 249 246 248 253 258 262 261 259 254 244 233 235 251 268 280 299 319 330 332 330 328 324 320 316 314 313
246 137 108 105 69 81 117 277 292 289 164 161 171 193 213 240 252 252 257 269 275 274 266 263 258 256 257 259 259 256 252 245 237 238 249 260 264 272 297 318 326 329 327 326 322 316 314 313 313